| time (UTC) | temp C | wind direction | speed KPH | gust KPH | rain 1hr cm | rain 24hr cm | rain mn cm | humidity % | barometer mb |
| 20260901095523 | 26 | 0 | 1.6 | 9.7 | 0.00 | 0.00 | 0.00 | 57 | 1015.8 |
| 20260901095023 | 26 | 188 | 1.6 | 9.7 | 0.00 | 0.00 | 0.00 | 57 | 1015.7 |
| 20260901094544 | 26 | 0 | 0.0 | 14.5 | 0.00 | 0.00 | 0.00 | 57 | 1015.8 |
| 20260901094027 | 26 | 0 | 1.6 | 14.5 | 0.00 | 0.00 | 0.00 | 57 | 1015.8 |
| 20260901093522 | 26 | 0 | 3.2 | 14.5 | 0.00 | 0.00 | 0.00 | 57 | 1015.6 |
| 20260901093050 | 26 | 159 | 3.2 | 9.7 | 0.00 | 0.00 | 0.00 | 58 | 1015.7 |
| 20260901092523 | 26 | 194 | 0.0 | 11.3 | 0.00 | 0.00 | 0.00 | 58 | 1015.5 |
| 20260901092031 | 26 | 0 | 1.6 | 11.3 | 0.00 | 0.00 | 0.00 | 58 | 1015.4 |
| 20260901091545 | 26 | 0 | 0.0 | 11.3 | 0.00 | 0.00 | 0.00 | 58 | 1015.4 |
| 20260901091024 | 26 | 0 | 0.0 | 9.7 | 0.00 | 0.00 | 0.00 | 58 | 1015.4 |
| 20260901090526 | 26 | 0 | 0.0 | 11.3 | 0.00 | 0.00 | 0.00 | 58 | 1015.4 |
| 20260901090050 | 26 | 0 | 1.6 | 11.3 | 0.00 | 0.00 | 0.00 | 58 | 1015.4 |
| 20260901085525 | 26 | 288 | 0.0 | 8.0 | 0.00 | 0.00 | 0.00 | 59 | 1015.3 |
| 20260901085023 | 26 | 229 | 0.0 | 6.4 | 0.00 | 0.00 | 0.00 | 59 | 1015.3 |
| 20260901084548 | 26 | 0 | 0.0 | 6.4 | 0.00 | 0.00 | 0.00 | 59 | 1015.4 |
| 20260901084029 | 26 | 0 | 0.0 | 6.4 | 0.00 | 0.00 | 0.00 | 59 | 1015.4 |
| 20260901083525 | 26 | 0 | 0.0 | 4.8 | 0.00 | 0.00 | 0.00 | 59 | 1015.3 |
| 20260901083049 | 26 | 0 | 0.0 | 4.8 | 0.00 | 0.00 | 0.00 | 59 | 1015.3 |
| 20260901082526 | 26 | 0 | 0.0 | 9.7 | 0.00 | 0.00 | 0.00 | 58 | 1015.1 |
| 20260901082028 | 26 | 0 | 0.0 | 9.7 | 0.00 | 0.00 | 0.00 | 58 | 1015.1 |
| 20260901081548 | 26 | 170 | 0.0 | 6.4 | 0.00 | 0.00 | 0.00 | 57 | 1015.1 |
| 20260901081025 | 26 | 0 | 0.0 | 3.2 | 0.00 | 0.00 | 0.00 | 57 | 1015.1 |
| 20260901080523 | 26 | 0 | 0.0 | 9.7 | 0.00 | 0.00 | 0.00 | 56 | 1015.1 |
| 20260901080049 | 27 | 0 | 0.0 | 9.7 | 0.00 | 0.00 | 0.00 | 55 | 1015.2 |
| 20260901075524 | 27 | 0 | 0.0 | 6.4 | 0.00 | 0.00 | 0.00 | 55 | 1015.2 |
| 20260901075027 | 27 | 0 | 0.0 | 9.7 | 0.00 | 0.00 | 0.00 | 54 | 1015.2 |
| 20260901074548 | 27 | 0 | 0.0 | 9.7 | 0.00 | 0.00 | 0.00 | 54 | 1015.1 |
| 20260901074025 | 27 | 129 | 0.0 | 9.7 | 0.00 | 0.00 | 0.00 | 54 | 1015.2 |
| 20260901073523 | 27 | 0 | 1.6 | 11.3 | 0.00 | 0.00 | 0.00 | 53 | 1015.2 |
| 20260901073046 | 27 | 178 | 1.6 | 11.3 | 0.00 | 0.00 | 0.00 | 53 | 1015.2 |
| 20260901072528 | 27 | 136 | 0.0 | 4.8 | 0.00 | 0.00 | 0.00 | 53 | 1015.1 |
| 20260901072023 | 27 | 0 | 0.0 | 8.0 | 0.00 | 0.00 | 0.00 | 53 | 1015.2 |
| 20260901071552 | 27 | 0 | 0.0 | 8.0 | 0.00 | 0.00 | 0.00 | 53 | 1015.2 |
| 20260901071024 | 27 | 0 | 0.0 | 9.7 | 0.00 | 0.00 | 0.00 | 52 | 1015.2 |
| 20260901070525 | 27 | 142 | 0.0 | 9.7 | 0.00 | 0.00 | 0.00 | 52 | 1015.3 |
| 20260901065525 | 27 | 184 | 1.6 | 17.7 | 0.00 | 0.00 | 0.00 | 52 | 1015.2 |
| 20260901065027 | 28 | 253 | 0.0 | 14.5 | 0.00 | 0.00 | 0.00 | 52 | 1015.3 |
| 20260901064546 | 28 | 0 | 0.0 | 14.5 | 0.00 | 0.00 | 0.00 | 51 | 1015.2 |
| 20260901064025 | 28 | 0 | 0.0 | 14.5 | 0.00 | 0.00 | 0.00 | 51 | 1015.3 |
| 20260901063526 | 28 | 181 | 1.6 | 12.9 | 0.00 | 0.00 | 0.00 | 51 | 1015.3 |
| 20260901063050 | 28 | 167 | 3.2 | 20.9 | 0.00 | 0.00 | 0.00 | 51 | 1015.2 |
| 20260901062524 | 27 | 222 | 4.8 | 20.9 | 0.00 | 0.00 | 0.00 | 51 | 1015.2 |
| 20260901062028 | 27 | 184 | 4.8 | 14.5 | 0.00 | 0.00 | 0.00 | 53 | 1015.3 |
| 20260901061551 | 27 | 165 | 3.2 | 14.5 | 0.00 | 0.00 | 0.00 | 54 | 1015.3 |
| 20260901061024 | 27 | 159 | 3.2 | 9.7 | 0.00 | 0.00 | 0.00 | 54 | 1015.2 |
| 20260901060524 | 27 | 160 | 3.2 | 9.7 | 0.00 | 0.00 | 0.00 | 54 | 1015.4 |
| 20260901060044 | 27 | 173 | 3.2 | 9.7 | 0.00 | 0.00 | 0.00 | 54 | 1015.3 |
| 20260901055525 | 27 | 163 | 1.6 | 8.0 | 0.00 | 0.00 | 0.00 | 55 | 1015.4 |
| 20260901055024 | 27 | 186 | 1.6 | 8.0 | 0.00 | 0.00 | 0.00 | 54 | 1015.4 |
| 20260901054549 | 27 | 167 | 0.0 | 8.0 | 0.00 | 0.00 | 0.00 | 55 | 1015.3 |
| 20260901054025 | 27 | 0 | 0.0 | 4.8 | 0.00 | 0.00 | 0.00 | 55 | 1015.3 |
| 20260901053526 | 27 | 0 | 0.0 | 6.4 | 0.00 | 0.00 | 0.00 | 54 | 1015.3 |
| 20260901053053 | 27 | 0 | 0.0 | 6.4 | 0.00 | 0.00 | 0.00 | 54 | 1015.3 |
| 20260901052523 | 27 | 163 | 0.0 | 8.0 | 0.00 | 0.00 | 0.00 | 54 | 1015.3 |
| 20260901052024 | 27 | 0 | 0.0 | 8.0 | 0.00 | 0.00 | 0.00 | 54 | 1015.3 |
| 20260901051544 | 27 | 0 | 0.0 | 4.8 | 0.00 | 0.00 | 0.00 | 54 | 1015.3 |
| 20260901051026 | 27 | 0 | 0.0 | 6.4 | 0.00 | 0.00 | 0.00 | 54 | 1015.4 |
| 20260901050525 | 27 | 0 | 0.0 | 6.4 | 0.00 | 0.00 | 0.00 | 53 | 1015.4 |
| 20260901050053 | 27 | 171 | 0.0 | 6.4 | 0.00 | 0.00 | 0.00 | 53 | 1015.4 |
| 20260901045523 | 27 | 172 | 0.0 | 3.2 | 0.00 | 0.00 | 0.00 | 53 | 1015.4 |
| 20260901045022 | 27 | 0 | 0.0 | 3.2 | 0.00 | 0.00 | 0.00 | 52 | 1015.4 |
| 20260901044556 | 28 | 0 | 0.0 | 3.2 | 0.00 | 0.00 | 0.00 | 52 | 1015.4 |
| 20260901044025 | 28 | 0 | 0.0 | 4.8 | 0.00 | 0.00 | 0.00 | 51 | 1015.4 |
| 20260901043527 | 28 | 0 | 0.0 | 4.8 | 0.00 | 0.00 | 0.00 | 51 | 1015.4 |
| 20260901043048 | 28 | 0 | 0.0 | 4.8 | 0.00 | 0.00 | 0.00 | 51 | 1015.3 |
| 20260901042527 | 28 | 0 | 0.0 | 4.8 | 0.00 | 0.00 | 0.00 | 50 | 1015.3 |
| 20260901042023 | 28 | 0 | 0.0 | 3.2 | 0.00 | 0.00 | 0.00 | 50 | 1015.2 |
| 20260901041544 | 28 | 0 | 0.0 | 8.0 | 0.00 | 0.00 | 0.00 | 50 | 1015.2 |
| 20260901041025 | 28 | 0 | 0.0 | 8.0 | 0.00 | 0.00 | 0.00 | 49 | 1015.2 |
| 20260901040524 | 29 | 0 | 1.6 | 6.4 | 0.00 | 0.00 | 0.00 | 49 | 1015.2 |
| 20260901040053 | 29 | 0 | 0.0 | 11.3 | 0.00 | 0.00 | 0.00 | 49 | 1015.1 |
| 20260901035524 | 29 | 0 | 1.6 | 11.3 | 0.00 | 0.00 | 0.00 | 48 | 1015.1 |
| 20260901035024 | 29 | 144 | 3.2 | 11.3 | 0.00 | 0.00 | 0.00 | 48 | 1015.1 |
| 20260901034549 | 30 | 0 | 1.6 | 9.7 | 0.00 | 0.00 | 0.00 | 48 | 1015.1 |
| 20260901034028 | 30 | 153 | 1.6 | 9.7 | 0.00 | 0.00 | 0.00 | 48 | 1015.1 |
| 20260901033524 | 30 | 176 | 1.6 | 9.7 | 0.00 | 0.00 | 0.00 | 47 | 1015.0 |
| 20260901033100 | 30 | 0 | 1.6 | 14.5 | 0.00 | 0.00 | 0.00 | 47 | 1014.9 |
| 20260901032526 | 30 | 0 | 3.2 | 14.5 | 0.00 | 0.00 | 0.00 | 48 | 1014.8 |
| 20260901032027 | 30 | 157 | 1.6 | 11.3 | 0.00 | 0.00 | 0.00 | 48 | 1014.8 |
| 20260901031545 | 30 | 0 | 3.2 | 12.9 | 0.00 | 0.00 | 0.00 | 47 | 1014.8 |
| 20260901031023 | 30 | 161 | 1.6 | 12.9 | 0.00 | 0.00 | 0.00 | 47 | 1014.8 |
| 20260901030524 | 30 | 177 | 0.0 | 12.9 | 0.00 | 0.00 | 0.00 | 47 | 1014.7 |
| 20260901030101 | 30 | 165 | 1.6 | 12.9 | 0.00 | 0.00 | 0.00 | 46 | 1014.7 |
| 20260901025525 | 30 | 174 | 0.0 | 14.5 | 0.00 | 0.00 | 0.00 | 46 | 1014.8 |
| 20260901025024 | 30 | 139 | 3.2 | 14.5 | 0.00 | 0.00 | 0.00 | 47 | 1014.8 |
| 20260901024551 | 30 | 157 | 0.0 | 9.7 | 0.00 | 0.00 | 0.00 | 47 | 1014.8 |
| 20260901024025 | 30 | 0 | 0.0 | 8.0 | 0.00 | 0.00 | 0.00 | 47 | 1014.7 |
| 20260901023536 | 30 | 162 | 0.0 | 8.0 | 0.00 | 0.00 | 0.00 | 48 | 1014.6 |
| 20260901023049 | 30 | 0 | 1.6 | 8.0 | 0.00 | 0.00 | 0.00 | 48 | 1014.6 |
| 20260901022524 | 31 | 153 | 1.6 | 8.0 | 0.00 | 0.00 | 0.00 | 48 | 1014.6 |
| 20260901022025 | 31 | 164 | 1.6 | 9.7 | 0.00 | 0.00 | 0.00 | 49 | 1014.5 |
| 20260901021558 | 31 | 121 | 1.6 | 9.7 | 0.00 | 0.00 | 0.00 | 48 | 1014.4 |
| 20260901021028 | 31 | 120 | 3.2 | 9.7 | 0.00 | 0.00 | 0.00 | 49 | 1014.4 |
| 20260901020523 | 31 | 164 | 1.6 | 12.9 | 0.00 | 0.00 | 0.00 | 48 | 1014.3 |
| 20260901020045 | 31 | 152 | 1.6 | 14.5 | 0.00 | 0.00 | 0.00 | 49 | 1014.3 |
| 20260901015522 | 31 | 0 | 3.2 | 14.5 | 0.00 | 0.00 | 0.00 | 49 | 1014.3 |
| 20260901015025 | 31 | 0 | 1.6 | 6.4 | 0.00 | 0.00 | 0.00 | 49 | 1014.3 |
| 20260901014544 | 31 | 0 | 0.0 | 6.4 | 0.00 | 0.00 | 0.00 | 48 | 1014.2 |
| 20260901014024 | 31 | 0 | 0.0 | 6.4 | 0.00 | 0.00 | 0.00 | 48 | 1014.2 |
| 20260901013523 | 31 | 0 | 0.0 | 4.8 | 0.00 | 0.00 | 0.00 | 48 | 1014.1 |
| 20260901013055 | 32 | 0 | 0.0 | 4.8 | 0.00 | 0.00 | 0.00 | 47 | 1014.1 |
| 20260901012523 | 32 | 0 | 0.0 | 8.0 | 0.00 | 0.00 | 0.00 | 47 | 1014.0 |
| 20260901012023 | 32 | 0 | 0.0 | 8.0 | 0.00 | 0.00 | 0.00 | 47 | 1014.0 |
| 20260901011608 | 32 | 0 | 0.0 | 3.2 | 0.00 | 0.00 | 0.00 | 47 | 1013.9 |
| 20260901011026 | 32 | 0 | 0.0 | 8.0 | 0.00 | 0.00 | 0.00 | 47 | 1013.8 |
| 20260901010527 | 32 | 0 | 0.0 | 8.0 | 0.00 | 0.00 | 0.00 | 46 | 1013.8 |
| 20260901010046 | 32 | 0 | 0.0 | 6.4 | 0.00 | 0.00 | 0.00 | 46 | 1013.8 |
| 20260901005524 | 33 | 0 | 0.0 | 3.2 | 0.00 | 0.00 | 0.00 | 45 | 1013.8 |
| 20260901005027 | 33 | 0 | 0.0 | 4.8 | 0.00 | 0.00 | 0.00 | 45 | 1013.8 |
| 20260901004546 | 33 | 0 | 0.0 | 8.0 | 0.00 | 0.00 | 0.00 | 44 | 1013.7 |
| 20260901004026 | 33 | 142 | 0.0 | 8.0 | 0.00 | 0.00 | 0.00 | 44 | 1013.7 |
| 20260901003524 | 34 | 0 | 1.6 | 8.0 | 0.00 | 0.00 | 0.00 | 43 | 1013.7 |
| 20260901003052 | 34 | 153 | 0.0 | 4.8 | 0.00 | 0.00 | 0.00 | 43 | 1013.7 |
| 20260901002523 | 34 | 0 | 0.0 | 4.8 | 0.00 | 0.00 | 0.00 | 43 | 1013.7 |
| 20260901002027 | 35 | 0 | 1.6 | 4.8 | 0.00 | 0.00 | 0.00 | 42 | 1013.7 |
| 20260901001548 | 35 | 0 | 0.0 | 8.0 | 0.00 | 0.00 | 0.00 | 42 | 1013.8 |
| 20260901001027 | 35 | 0 | 1.6 | 8.0 | 0.00 | 0.00 | 0.00 | 41 | 1013.7 |
| 20260901000522 | 35 | 182 | 0.0 | 6.4 | 0.00 | 0.00 | 0.00 | 41 | 1013.7 |
| 20260901000045 | 35 | 0 | 0.0 | 8.0 | 0.00 | 0.00 | 0.00 | 41 | 1013.7 |
| 20260831235524 | 35 | 163 | 0.0 | 9.7 | 0.00 | 0.00 | 0.00 | 40 | 1013.8 |
| 20260831235025 | 35 | 0 | 1.6 | 12.9 | 0.00 | 0.00 | 0.00 | 40 | 1013.8 |
| 20260831234547 | 35 | 0 | 1.6 | 14.5 | 0.00 | 0.00 | 0.00 | 40 | 1013.8 |
| 20260831234026 | 35 | 199 | 3.2 | 16.1 | 0.00 | 0.00 | 0.00 | 39 | 1013.8 |
| 20260831233524 | 35 | 0 | 4.8 | 16.1 | 0.00 | 0.00 | 0.00 | 39 | 1013.8 |
| 20260831233048 | 36 | 153 | 6.4 | 16.1 | 0.00 | 0.00 | 0.00 | 39 | 1013.8 |
| 20260831232523 | 36 | 184 | 6.4 | 16.1 | 0.00 | 0.00 | 0.00 | 39 | 1013.7 |
| 20260831232024 | 36 | 144 | 4.8 | 16.1 | 0.00 | 0.00 | 0.00 | 40 | 1013.7 |
| 20260831231551 | 36 | 169 | 4.8 | 12.9 | 0.00 | 0.00 | 0.00 | 39 | 1013.8 |
| 20260831231024 | 36 | 0 | 3.2 | 16.1 | 0.00 | 0.00 | 0.00 | 39 | 1013.8 |
| 20260831230527 | 36 | 158 | 4.8 | 16.1 | 0.00 | 0.00 | 0.00 | 39 | 1013.8 |
| 20260831230053 | 36 | 178 | 3.2 | 12.9 | 0.00 | 0.00 | 0.00 | 39 | 1013.8 |
| 20260831225522 | 36 | 177 | 3.2 | 17.7 | 0.00 | 0.00 | 0.00 | 39 | 1013.7 |
| 20260831225027 | 36 | 148 | 4.8 | 17.7 | 0.00 | 0.00 | 0.00 | 38 | 1013.7 |
| 20260831224548 | 36 | 146 | 4.8 | 16.1 | 0.00 | 0.00 | 0.00 | 37 | 1013.6 |
| 20260831224025 | 37 | 0 | 1.6 | 16.1 | 0.00 | 0.00 | 0.00 | 37 | 1013.6 |
| 20260831223528 | 37 | 196 | 4.8 | 16.1 | 0.00 | 0.00 | 0.00 | 35 | 1013.6 |
| 20260831223047 | 37 | 175 | 4.8 | 24.1 | 0.00 | 0.00 | 0.00 | 35 | 1013.6 |
| 20260831222529 | 37 | 258 | 4.8 | 24.1 | 0.00 | 0.00 | 0.00 | 36 | 1013.6 |
| 20260831222026 | 37 | 163 | 4.8 | 19.3 | 0.00 | 0.00 | 0.00 | 35 | 1013.7 |
| 20260831221603 | 37 | 175 | 3.2 | 19.3 | 0.00 | 0.00 | 0.00 | 36 | 1013.7 |
| 20260831221025 | 37 | 186 | 1.6 | 17.7 | 0.00 | 0.00 | 0.00 | 37 | 1013.7 |
| 20260831220525 | 37 | 188 | 6.4 | 17.7 | 0.00 | 0.00 | 0.00 | 35 | 1013.8 |
| 20260831220047 | 37 | 140 | 4.8 | 14.5 | 0.00 | 0.00 | 0.00 | 35 | 1013.8 |
| 20260831215528 | 37 | 198 | 1.6 | 17.7 | 0.00 | 0.00 | 0.00 | 35 | 1013.8 |
| 20260831215023 | 37 | 176 | 8.0 | 17.7 | 0.00 | 0.00 | 0.00 | 36 | 1013.8 |
| 20260831214554 | 37 | 187 | 4.8 | 14.5 | 0.00 | 0.00 | 0.00 | 36 | 1013.8 |
| 20260831214025 | 38 | 200 | 3.2 | 11.3 | 0.00 | 0.00 | 0.00 | 36 | 1013.8 |
| 20260831213528 | 38 | 0 | 1.6 | 14.5 | 0.00 | 0.00 | 0.00 | 36 | 1013.7 |
| 20260831213045 | 37 | 275 | 1.6 | 17.7 | 0.00 | 0.00 | 0.00 | 36 | 1013.7 |
| 20260831212524 | 37 | 313 | 1.6 | 17.7 | 0.00 | 0.00 | 0.00 | 36 | 1013.8 |
| 20260831212028 | 38 | 285 | 3.2 | 16.1 | 0.00 | 0.00 | 0.00 | 35 | 1013.8 |
| 20260831211552 | 38 | 235 | 4.8 | 12.9 | 0.00 | 0.00 | 0.00 | 35 | 1013.8 |
| 20260831211022 | 37 | 316 | 1.6 | 12.9 | 0.00 | 0.00 | 0.00 | 35 | 1013.9 |
| 20260831210530 | 37 | 131 | 1.6 | 12.9 | 0.00 | 0.00 | 0.00 | 35 | 1013.8 |
| 20260831210048 | 37 | 324 | 3.2 | 19.3 | 0.00 | 0.00 | 0.00 | 35 | 1014.0 |
| 20260831205524 | 38 | 303 | 4.8 | 19.3 | 0.00 | 0.00 | 0.00 | 36 | 1014.1 |
| 20260831205026 | 38 | 128 | 3.2 | 9.7 | 0.00 | 0.00 | 0.00 | 36 | 1014.1 |
| 20260831204546 | 38 | 0 | 0.0 | 19.3 | 0.00 | 0.00 | 0.00 | 36 | 1014.1 |
| 20260831204026 | 38 | 319 | 1.6 | 19.3 | 0.00 | 0.00 | 0.00 | 35 | 1014.2 |
| 20260831203525 | 38 | 5 | 1.6 | 12.9 | 0.00 | 0.00 | 0.00 | 36 | 1014.1 |
| 20260831203108 | 37 | 113 | 4.8 | 12.9 | 0.00 | 0.00 | 0.00 | 35 | 1014.1 |
| 20260831202529 | 37 | 0 | 3.2 | 11.3 | 0.00 | 0.00 | 0.00 | 37 | 1014.2 |
| 20260831202029 | 37 | 297 | 3.2 | 11.3 | 0.00 | 0.00 | 0.00 | 37 | 1014.2 |
| 20260831201553 | 37 | 244 | 4.8 | 11.3 | 0.00 | 0.00 | 0.00 | 36 | 1014.3 |
| 20260831201024 | 37 | 0 | 3.2 | 14.5 | 0.00 | 0.00 | 0.00 | 36 | 1014.3 |
| 20260831200529 | 37 | 266 | 4.8 | 14.5 | 0.00 | 0.00 | 0.00 | 36 | 1014.3 |
| 20260831200053 | 37 | 176 | 3.2 | 14.5 | 0.00 | 0.00 | 0.00 | 37 | 1014.3 |
| 20260831195525 | 37 | 203 | 3.2 | 14.5 | 0.00 | 0.00 | 0.00 | 37 | 1014.4 |
| 20260831195027 | 37 | 259 | 3.2 | 12.9 | 0.00 | 0.00 | 0.00 | 38 | 1014.3 |
| 20260831194601 | 37 | 295 | 3.2 | 14.5 | 0.00 | 0.00 | 0.00 | 37 | 1014.3 |
| 20260831194027 | 37 | 257 | 1.6 | 14.5 | 0.00 | 0.00 | 0.00 | 39 | 1014.3 |
| 20260831193524 | 37 | 171 | 3.2 | 12.9 | 0.00 | 0.00 | 0.00 | 37 | 1014.3 |
| 20260831193049 | 37 | 178 | 1.6 | 12.9 | 0.00 | 0.00 | 0.00 | 37 | 1014.4 |
| 20260831192525 | 37 | 0 | 3.2 | 12.9 | 0.00 | 0.00 | 0.00 | 36 | 1014.4 |
| 20260831192024 | 37 | 262 | 4.8 | 14.5 | 0.00 | 0.00 | 0.00 | 36 | 1014.4 |
| 20260831191550 | 37 | 5 | 1.6 | 14.5 | 0.00 | 0.00 | 0.00 | 37 | 1014.5 |
| 20260831191027 | 37 | 178 | 3.2 | 24.1 | 0.00 | 0.00 | 0.00 | 38 | 1014.6 |
| 20260831190531 | 37 | 170 | 4.8 | 24.1 | 0.00 | 0.00 | 0.00 | 37 | 1014.5 |
| 20260831190057 | 37 | 162 | 1.6 | 17.7 | 0.00 | 0.00 | 0.00 | 38 | 1014.5 |
| 20260831185527 | 36 | 276 | 4.8 | 17.7 | 0.00 | 0.00 | 0.00 | 40 | 1014.6 |
| 20260831185022 | 36 | 254 | 3.2 | 17.7 | 0.00 | 0.00 | 0.00 | 39 | 1014.6 |
| 20260831184552 | 36 | 188 | 6.4 | 17.7 | 0.00 | 0.00 | 0.00 | 38 | 1014.5 |
| 20260831184024 | 36 | 175 | 3.2 | 16.1 | 0.00 | 0.00 | 0.00 | 39 | 1014.6 |
| 20260831183529 | 36 | 261 | 3.2 | 24.1 | 0.00 | 0.00 | 0.00 | 40 | 1014.6 |
| 20260831183046 | 35 | 309 | 4.8 | 24.1 | 0.00 | 0.00 | 0.00 | 40 | 1014.7 |
| 20260831182525 | 35 | 181 | 9.7 | 19.3 | 0.00 | 0.00 | 0.00 | 39 | 1014.6 |
| 20260831182029 | 35 | 0 | 4.8 | 16.1 | 0.00 | 0.00 | 0.00 | 42 | 1014.7 |
| 20260831181552 | 35 | 315 | 3.2 | 17.7 | 0.00 | 0.00 | 0.00 | 41 | 1014.8 |
| 20260831181027 | 35 | 203 | 3.2 | 17.7 | 0.00 | 0.00 | 0.00 | 42 | 1014.9 |
| 20260831180530 | 35 | 265 | 3.2 | 16.1 | 0.00 | 0.00 | 0.00 | 42 | 1015.0 |
| 20260831180100 | 35 | 174 | 3.2 | 16.1 | 0.00 | 0.00 | 0.00 | 43 | 1015.0 |
| 20260831175525 | 35 | 186 | 4.8 | 16.1 | 0.00 | 0.00 | 0.00 | 42 | 1015.1 |
| 20260831175027 | 35 | 175 | 3.2 | 14.5 | 0.00 | 0.00 | 0.00 | 43 | 1015.2 |
| 20260831174547 | 35 | 159 | 3.2 | 14.5 | 0.00 | 0.00 | 0.00 | 43 | 1015.2 |
| 20260831174025 | 35 | 207 | 3.2 | 17.7 | 0.00 | 0.00 | 0.00 | 44 | 1015.4 |
| 20260831173524 | 34 | 322 | 4.8 | 22.5 | 0.00 | 0.00 | 0.00 | 45 | 1015.3 |
| 20260831173050 | 33 | 159 | 1.6 | 22.5 | 0.00 | 0.00 | 0.00 | 47 | 1015.3 |
| 20260831172526 | 33 | 179 | 6.4 | 22.5 | 0.00 | 0.00 | 0.00 | 46 | 1015.3 |
| 20260831172026 | 33 | 150 | 4.8 | 24.1 | 0.00 | 0.00 | 0.00 | 44 | 1015.3 |
| 20260831171543 | 33 | 170 | 4.8 | 24.1 | 0.00 | 0.00 | 0.00 | 46 | 1015.4 |
| 20260831171024 | 33 | 265 | 6.4 | 12.9 | 0.00 | 0.00 | 0.00 | 45 | 1015.4 |
| 20260831170532 | 33 | 84 | 1.6 | 16.1 | 0.00 | 0.00 | 0.00 | 46 | 1015.5 |
| 20260831170049 | 33 | 150 | 1.6 | 16.1 | 0.00 | 0.00 | 0.00 | 45 | 1015.6 |
| 20260831165524 | 33 | 276 | 6.4 | 16.1 | 0.00 | 0.00 | 0.00 | 46 | 1015.6 |
| 20260831165026 | 33 | 0 | 3.2 | 14.5 | 0.00 | 0.00 | 0.00 | 46 | 1015.6 |
| 20260831164547 | 33 | 204 | 4.8 | 19.3 | 0.00 | 0.00 | 0.00 | 46 | 1015.7 |
| 20260831164023 | 33 | 0 | 3.2 | 20.9 | 0.00 | 0.00 | 0.00 | 47 | 1015.6 |
| 20260831163528 | 33 | 0 | 3.2 | 20.9 | 0.00 | 0.00 | 0.00 | 46 | 1015.5 |
| 20260831163043 | 32 | 114 | 4.8 | 17.7 | 0.00 | 0.00 | 0.00 | 47 | 1015.5 |
| 20260831162530 | 32 | 200 | 3.2 | 16.1 | 0.00 | 0.00 | 0.00 | 47 | 1015.5 |
| 20260831162027 | 32 | 170 | 1.6 | 25.7 | 0.00 | 0.00 | 0.00 | 49 | 1015.6 |
| 20260831161550 | 31 | 165 | 8.0 | 25.7 | 0.00 | 0.00 | 0.00 | 49 | 1015.6 |
| 20260831161026 | 32 | 170 | 3.2 | 14.5 | 0.00 | 0.00 | 0.00 | 50 | 1015.6 |
| 20260831160524 | 32 | 350 | 1.6 | 16.1 | 0.00 | 0.00 | 0.00 | 50 | 1015.7 |
| 20260831160047 | 31 | 169 | 4.8 | 16.1 | 0.00 | 0.00 | 0.00 | 50 | 1015.7 |
| 20260831155526 | 31 | 281 | 3.2 | 14.5 | 0.00 | 0.00 | 0.00 | 52 | 1015.8 |
| 20260831155028 | 31 | 0 | 4.8 | 14.5 | 0.00 | 0.00 | 0.00 | 53 | 1015.9 |
| 20260831154619 | 31 | 0 | 1.6 | 9.7 | 0.00 | 0.00 | 0.00 | 52 | 1015.9 |
| 20260831154028 | 30 | 90 | 1.6 | 12.9 | 0.00 | 0.00 | 0.00 | 54 | 1015.9 |
| 20260831153532 | 30 | 132 | 3.2 | 12.9 | 0.00 | 0.00 | 0.00 | 54 | 1015.8 |
| 20260831153053 | 30 | 219 | 1.6 | 8.0 | 0.00 | 0.00 | 0.00 | 54 | 1015.9 |
| 20260831152528 | 30 | 0 | 1.6 | 8.0 | 0.00 | 0.00 | 0.00 | 55 | 1015.8 |
| 20260831152029 | 30 | 0 | 1.6 | 8.0 | 0.00 | 0.00 | 0.00 | 54 | 1015.7 |
| 20260831151549 | 30 | 0 | 1.6 | 12.9 | 0.00 | 0.00 | 0.00 | 56 | 1015.7 |
| 20260831151028 | 29 | 0 | 1.6 | 12.9 | 0.00 | 0.00 | 0.00 | 56 | 1015.8 |
| 20260831150530 | 30 | 163 | 1.6 | 12.9 | 0.00 | 0.00 | 0.00 | 55 | 1015.8 |
| 20260831150048 | 30 | 345 | 3.2 | 14.5 | 0.00 | 0.00 | 0.00 | 56 | 1015.8 |
| 20260831145528 | 29 | 180 | 1.6 | 14.5 | 0.00 | 0.00 | 0.00 | 58 | 1015.8 |
| 20260831145029 | 28 | 225 | 3.2 | 16.1 | 0.00 | 0.00 | 0.00 | 57 | 1015.7 |
| 20260831144552 | 28 | 218 | 4.8 | 16.1 | 0.00 | 0.00 | 0.00 | 59 | 1015.7 |
| 20260831144024 | 28 | 348 | 3.2 | 16.1 | 0.00 | 0.00 | 0.00 | 59 | 1015.7 |
| 20260831143526 | 28 | 0 | 3.2 | 16.1 | 0.00 | 0.00 | 0.00 | 60 | 1015.7 |
| 20260831143054 | 28 | 170 | 0.0 | 9.7 | 0.00 | 0.00 | 0.00 | 61 | 1015.8 |
| 20260831142526 | 27 | 269 | 3.2 | 14.5 | 0.00 | 0.00 | 0.00 | 61 | 1015.8 |
| 20260831142028 | 27 | 306 | 0.0 | 14.5 | 0.00 | 0.00 | 0.00 | 62 | 1015.9 |
| 20260831141549 | 27 | 42 | 3.2 | 20.9 | 0.00 | 0.00 | 0.00 | 63 | 1015.9 |
| 20260831141025 | 26 | 190 | 1.6 | 20.9 | 0.00 | 0.00 | 0.00 | 64 | 1015.9 |
| 20260831140527 | 26 | 178 | 4.8 | 19.3 | 0.00 | 0.00 | 0.00 | 65 | 1015.9 |
| 20260831140048 | 26 | 159 | 6.4 | 14.5 | 0.00 | 0.00 | 0.00 | 66 | 1015.9 |
| 20260831135525 | 25 | 159 | 4.8 | 14.5 | 0.00 | 0.00 | 0.00 | 67 | 1015.8 |
| 20260831135024 | 25 | 184 | 3.2 | 12.9 | 0.00 | 0.00 | 0.00 | 67 | 1016.0 |
| 20260831134546 | 25 | 131 | 4.8 | 12.9 | 0.00 | 0.00 | 0.00 | 66 | 1015.9 |
| 20260831134031 | 25 | 217 | 1.6 | 14.5 | 0.00 | 0.00 | 0.00 | 66 | 1015.8 |
| 20260831133528 | 25 | 298 | 4.8 | 14.5 | 0.00 | 0.00 | 0.00 | 66 | 1015.7 |
| 20260831133055 | 25 | 0 | 3.2 | 14.5 | 0.00 | 0.00 | 0.00 | 67 | 1015.7 |
| 20260831132525 | 25 | 161 | 1.6 | 12.9 | 0.00 | 0.00 | 0.00 | 68 | 1015.7 |
| 20260831132030 | 25 | 170 | 4.8 | 12.9 | 0.00 | 0.00 | 0.00 | 67 | 1015.8 |
| 20260831131553 | 25 | 171 | 3.2 | 14.5 | 0.00 | 0.00 | 0.00 | 67 | 1015.9 |
| 20260831131027 | 25 | 0 | 3.2 | 14.5 | 0.00 | 0.00 | 0.00 | 67 | 1015.9 |
| 20260831130524 | 25 | 0 | 1.6 | 11.3 | 0.00 | 0.00 | 0.00 | 67 | 1015.8 |
| 20260831130052 | 25 | 129 | 3.2 | 11.3 | 0.00 | 0.00 | 0.00 | 67 | 1015.8 |
| 20260831125523 | 25 | 0 | 1.6 | 11.3 | 0.00 | 0.00 | 0.00 | 67 | 1015.7 |
| 20260831125028 | 25 | 138 | 1.6 | 17.7 | 0.00 | 0.00 | 0.00 | 67 | 1015.7 |
| 20260831124549 | 25 | 161 | 3.2 | 17.7 | 0.00 | 0.00 | 0.00 | 67 | 1015.5 |
| 20260831124024 | 24 | 188 | 4.8 | 16.1 | 0.00 | 0.00 | 0.00 | 67 | 1015.4 |
| 20260831123525 | 24 | 182 | 3.2 | 9.7 | 0.00 | 0.00 | 0.00 | 68 | 1015.4 |
| 20260831123050 | 24 | 0 | 3.2 | 9.7 | 0.00 | 0.00 | 0.00 | 68 | 1015.5 |
| 20260831122527 | 24 | 192 | 0.0 | 8.0 | 0.00 | 0.00 | 0.00 | 68 | 1015.4 |
| 20260831122025 | 24 | 0 | 1.6 | 11.3 | 0.00 | 0.00 | 0.00 | 68 | 1015.3 |
| 20260831121545 | 23 | 0 | 1.6 | 11.3 | 0.00 | 0.00 | 0.00 | 68 | 1015.2 |
| 20260831121024 | 23 | 0 | 1.6 | 11.3 | 0.00 | 0.00 | 0.00 | 68 | 1015.2 |
| 20260831120525 | 23 | 0 | 1.6 | 11.3 | 0.00 | 0.00 | 0.00 | 68 | 1015.1 |
| 20260831120053 | 23 | 157 | 0.0 | 9.7 | 0.00 | 0.00 | 0.00 | 68 | 1014.9 |
| 20260831115531 | 23 | 0 | 1.6 | 9.7 | 0.00 | 0.00 | 0.00 | 68 | 1014.9 |
| 20260831115027 | 23 | 0 | 0.0 | 11.3 | 0.00 | 0.00 | 0.00 | 67 | 1014.7 |
| 20260831114544 | 23 | 196 | 4.8 | 11.3 | 0.00 | 0.00 | 0.00 | 67 | 1014.5 |
| 20260831114025 | 24 | 167 | 4.8 | 11.3 | 0.00 | 0.00 | 0.00 | 67 | 1014.5 |
| 20260831113525 | 24 | 143 | 4.8 | 12.9 | 0.00 | 0.00 | 0.00 | 66 | 1014.4 |
| 20260831113050 | 24 | 182 | 3.2 | 14.5 | 0.00 | 0.00 | 0.00 | 65 | 1014.4 |
| 20260831112524 | 24 | 187 | 6.4 | 14.5 | 0.00 | 0.00 | 0.00 | 65 | 1014.4 |
| 20260831112024 | 24 | 0 | 3.2 | 11.3 | 0.00 | 0.00 | 0.00 | 65 | 1014.4 |
| 20260831111554 | 25 | 196 | 3.2 | 14.5 | 0.00 | 0.00 | 0.00 | 65 | 1014.5 |
| 20260831111023 | 24 | 209 | 3.2 | 14.5 | 0.00 | 0.00 | 0.00 | 65 | 1014.5 |
| 20260831110524 | 24 | 178 | 4.8 | 14.5 | 0.00 | 0.00 | 0.00 | 65 | 1014.5 |
| 20260831110049 | 24 | 169 | 4.8 | 14.5 | 0.00 | 0.00 | 0.00 | 65 | 1014.5 |
| 20260831105526 | 24 | 169 | 3.2 | 14.5 | 0.00 | 0.00 | 0.00 | 65 | 1014.4 |
| 20260831105026 | 24 | 0 | 1.6 | 8.0 | 0.00 | 0.00 | 0.00 | 65 | 1014.4 |
| 20260831104544 | 24 | 0 | 0.0 | 4.8 | 0.00 | 0.00 | 0.00 | 65 | 1014.3 |
| 20260831104026 | 25 | 174 | 0.0 | 4.8 | 0.00 | 0.00 | 0.00 | 64 | 1014.2 |
| 20260831103525 | 25 | 177 | 0.0 | 3.2 | 0.00 | 0.00 | 0.00 | 64 | 1014.2 |
| 20260831103041 | 25 | 0 | 0.0 | 9.7 | 0.00 | 0.00 | 0.00 | 63 | 1014.2 |
| 20260831102526 | 25 | 0 | 0.0 | 9.7 | 0.00 | 0.00 | 0.00 | 63 | 1014.1 |
| 20260831102028 | 25 | 183 | 3.2 | 11.3 | 0.00 | 0.00 | 0.00 | 62 | 1013.9 |
| 20260831101556 | 25 | 156 | 3.2 | 14.5 | 0.00 | 0.00 | 0.00 | 62 | 1013.8 |
| 20260831101022 | 25 | 0 | 4.8 | 16.1 | 0.00 | 0.00 | 0.00 | 62 | 1013.7 |
| 20260831100524 | 25 | 148 | 4.8 | 16.1 | 0.00 | 0.00 | 0.00 | 61 | 1013.6 |
| 20260831100047 | 25 | 151 | 4.8 | 14.5 | 0.00 | 0.00 | 0.00 | 61 | 1013.6 |